Regional Weather Roundup
Issued by NWS Northern Indiana

Home | Current Version | Previous Version | Graphics & Text | Print | Product List | Glossary On
Versions: 1 2 3 4 5 6 7 8 9 10 11 12 13 14 15 16 17 18 19 20 21 22 23 24 25 26 27 28 29 30 31 32 33 34 35 36 37 38 39 40 41 42 43 44 45 46 47 48 49 50
000
ASUS43 KIWX 222100
RWRIWX

KIWX WEATHER ROUNDUP
NATIONAL WEATHER SERVICE NORTHERN INDIANA
400 PM EST SAT NOV 22 2014

NOTE: "FAIR" INDICATES FEW OR NO CLOUDS BELOW 12,000 FEET WITH NO
SIGNIFICANT WEATHER AND/OR OBSTRUCTIONS TO VISIBILITY.

* THESE STATIONS ARE NOT UNDER NWS QUALITY CONTROL. THEY ALSO MAY NOT
  REPORT WEATHER SUCH AS PRECIPITATION OR FOG.

INZ001>027-222200-
NORTHERN INDIANA

CITY           SKY/WX    TMP DP  RH WIND       PRES   REMARKS
SOUTH BEND     LGT RAIN  44  43  96 S9        29.94F FOG
ELKHART*       DRIZZLE   45  43  93 S8        29.94F
GOSHEN         LGT RAIN  47  44  90 SW10      29.95S FOG
ANGOLA*        CLOUDY    46  39  76 SW13      29.95F
FORT WAYNE     CLOUDY    49  43  80 SW13      30.00F

$$
INZ028>050-222200-
CENTRAL INDIANA

CITY           SKY/WX    TMP DP  RH WIND       PRES   REMARKS
LAFAYETTE      CLOUDY    55  44  66 SW13G25   29.97F
KOKOMO*        CLOUDY    54  45  71 SW14      29.99S
MUNCIE*        CLOUDY    53  42  66 S16G23    30.02F
INDIANAPOLIS   CLOUDY    55  42  61 S16       30.02F

$$
MIZ043>046-050>051-056>058-064>065-071>073-077>080-222200-
SOUTHWEST LOWER MICHIGAN

CITY           SKY/WX    TMP DP  RH WIND       PRES   REMARKS
BATTLE CREEK   CLOUDY    42  39  89 SW16      29.91F FOG
BENTON HARBOR  CLOUDY    44  43  96 S8        29.91R FOG
COLDWATER*     CLOUDY    47  44  88 SW14      29.93S
HILLSDALE*     CLOUDY    46  45  97 SW10G17   29.94S
HOLLAND        CLOUDY    45  42  89 S16       29.88F FOG
GRAND RAPIDS   LGT RAIN  39  38  96 S12       29.88F FOG
KALAMAZOO      CLOUDY    41  39  93 SW12      29.91F FOG
STURGIS*       RAIN      45  43  93 S13       29.94R
THREE RIVERS*  CLOUDY    44  42  90 SW12      29.93S

$$
OHZ001>008-015>018-024>025-222200-
NORTHWEST OHIO

CITY           SKY/WX    TMP DP  RH WIND       PRES   REMARKS
DEFIANCE       LGT RAIN  50  43  77 SW13G21   29.99F
FINDLAY        CLOUDY    51  41  68 SW22G29   30.01F
TOLEDO EXPRESS CLOUDY    47  42  83 SW9       29.98F
TOLEDO METCALF CLOUDY    49  41  74 SW14      29.99F
LIMA           CLOUDY    50  40  68 S13       30.03S

$$
AND FOR LAKE MICHIGAN COASTAL AND OPEN LAKE BUOY OBSERVATIONS

STATION/POSITION TEMP    WIND        PRES    VSBY  WAVE
                 AIR SEA DIR/SP/G                  HT/PER
                 (F)     (DEG/KT/KT) (MB)    (MI)  (FT/S)
CALUMET HARBOR    49     190/ 11/ 15 1011.0F
MICHIGAN CITY     46     160/ 15/ 20   N/A
SAINT JOSEPH      45     170/  7/ 15 1012.9F
SOUTH LAKE BUOY   43 42  200/ 17/ 21 1011.8F         4/ 5

$$
&&



USA.gov is the U.S. government's official web portal to all federal, state and local government web resources and services.